User: anonymous   Login
Location: El Bakhil
(32.7726°N, 5.5387°W)
Time: 20:44:05
(UTC+00:00)
Language:

Max Valier Satellite - Orbit

View from above orbital plane
View from above orbital plane
View from above satellite
View from above satellite

Ground track
Ground track

The orbit data is extracted from the following two-line orbital elements,

1 42778U 17036P   21204.35836305  .00001752  00000-0  75624-4 0  9990
2 42778  97.2526 251.7892 0013242  55.4748 304.7738 15.23735169226756
Epoch (UTC): 23 July 2021 08:36:02
Eccentricity: 0.0013242
inclination: 97.2526°
perigee height: 485 km
apogee height: 503 km
right ascension of ascending node: 251.7892°
argument of perigee: 55.4748°
revolutions per day: 15.23735169
mean anomaly at epoch: 304.7738°
orbit number at epoch: 22675

The dashed part of the orbit path shows where the satellite is in the earth's shadow,  

DLR